Weather History for KTSP - April, 2013

Change the Weather History Date:

Saturday, April 13, 2013

  Actual Average Record
Temperature  
Mean Temperature 56 °F -  
Max Temperature 68 °F 63 °F 77 °F (2015)
Min Temperature 44 °F 36 °F 32 °F (2012)
Degree Days  
Heating Degree Days 9    
Growing Degree Days 6 (Base 50)    
Moisture  
Dew Point 36 °F    
Average Humidity 46    
Maximum Humidity 81    
Minimum Humidity 23    
Precipitation  
Precipitation 0.00 in - - ()
Sea Level Pressure  
Sea Level Pressure 29.89 in    
Wind  
Wind Speed 13 mph (WNW)    
Max Wind Speed 28 mph    
Max Gust Speed 37 mph    
Visibility 10 miles    
Events      
Averages and records for this station are not official NWS values.
T = Trace of Precipitation, MM = Missing Value Source: NWS Daily Summary

Daily Weather History Graph

Daily Weather History Graph

Search for Another Location

Airport or City:

Trip Planner

Search our weather history database for the weather conditions in past years. The results will help you decide how hot, cold, wet, or windy it might be!

Date:

Astronomy

Apr. 13, 2013 Rise Set
Actual Time 6:23 AM PDT 7:25 PM PDT
Civil Twilight 5:57 AM PDT 7:51 PM PDT
Nautical Twilight 5:26 AM PDT 8:22 PM PDT
Astronomical Twilight 4:55 AM PDT 8:54 PM PDT
Moon 8:24 AM PDT (4/13) 10:46 PM PDT (4/13)
Length of Visible Light 13h 53m
Length of Day
13h 01m
Waxing Crescent, 11% of the Moon is Illuminated
Apr 13
Waxing Crescent
Apr 18
First Quarter
Apr 25
Full
May 2
Last Quarter
May 9
New

Hourly Weather History & Observations

Time (PDT) Temp. Windchill Dew Point Humidity Pressure Visibility Wind Dir Wind Speed Gust Speed Precip Events Conditions
12:15 AM 50.0 °F - 42.8 °F 76% 29.97 in 10.0 mi West 6.9 mph - N/A   Clear
12:35 AM 50.0 °F - 41.0 °F 71% 29.96 in 10.0 mi WNW 4.6 mph - N/A   Clear
12:55 AM 48.2 °F - 41.0 °F 76% 29.96 in 10.0 mi West 8.1 mph - N/A   Clear
1:15 AM 48.2 °F - 41.0 °F 76% 29.96 in 10.0 mi West 8.1 mph - N/A   Clear
1:35 AM 50.0 °F - 41.0 °F 71% 29.95 in 10.0 mi West 9.2 mph - N/A   Clear
1:55 AM 50.0 °F - 41.0 °F 71% 29.95 in 10.0 mi West 9.2 mph - N/A   Clear
2:15 AM 50.0 °F - 41.0 °F 71% 29.95 in 10.0 mi West 8.1 mph - N/A   Clear
2:35 AM 50.0 °F - 41.0 °F 71% 29.94 in 10.0 mi NW 5.8 mph - N/A   Clear
2:55 AM 50.0 °F - 41.0 °F 71% 29.93 in 10.0 mi NW 3.5 mph - N/A   Clear
3:15 AM 48.2 °F - 39.2 °F 71% 29.93 in 10.0 mi Calm Calm - N/A   Clear
3:35 AM 48.2 °F - 41.0 °F 76% 29.92 in 10.0 mi Calm Calm - N/A   Clear
3:55 AM - - - N/A% - - North - - N/A   Unknown
4:15 AM 44.6 °F - 39.2 °F 81% 29.92 in 10.0 mi Calm Calm - N/A   Unknown
4:55 AM 44.6 °F 42.2 °F 39.2 °F 81% 29.91 in 10.0 mi West 4.6 mph - N/A   Clear
5:55 AM 48.2 °F - 39.2 °F 71% 29.91 in 10.0 mi West 10.4 mph - N/A   Clear
6:15 AM 46.4 °F 42.4 °F 39.2 °F 76% 29.91 in 10.0 mi West 8.1 mph - N/A   Clear
6:35 AM 48.2 °F - 39.2 °F 71% 29.91 in 10.0 mi West 10.4 mph - N/A   Clear
6:55 AM 50.0 °F - 39.2 °F 66% 29.92 in 10.0 mi West 9.2 mph - N/A   Clear
7:15 AM 51.8 °F - 41.0 °F 67% 29.92 in 10.0 mi West 8.1 mph - N/A   Clear
7:35 AM 53.6 °F - 41.0 °F 62% 29.92 in 10.0 mi West 8.1 mph - N/A   Clear
7:55 AM 55.4 °F - 41.0 °F 58% 29.92 in 10.0 mi West 10.4 mph - N/A   Clear
8:15 AM 57.2 °F - 41.0 °F 55% 29.92 in 10.0 mi West 10.4 mph - N/A   Clear
8:35 AM 59.0 °F - 42.8 °F 55% 29.92 in 10.0 mi WNW 10.4 mph - N/A   Clear
8:55 AM 60.8 °F - 42.8 °F 52% 29.92 in 10.0 mi WNW 13.8 mph - N/A   Clear
9:15 AM 60.8 °F - 41.0 °F 48% 29.92 in 10.0 mi NW 16.1 mph - N/A   Clear
9:35 AM - - - N/A% - 10.0 mi North - - N/A   Unknown
9:55 AM - - - N/A% 29.92 in - NW 19.6 mph - N/A   Unknown
10:15 AM 64.4 °F - 41.0 °F 42% 29.93 in 10.0 mi WNW 16.1 mph 23.0 mph N/A   Unknown
10:35 AM - - - N/A% - - North - - N/A   Unknown
10:55 AM 64.4 °F - 41.0 °F 42% 29.93 in 10.0 mi NW 20.7 mph 27.6 mph N/A   Unknown
11:15 AM 64.4 °F - 39.2 °F 40% 29.93 in 10.0 mi NW 19.6 mph 25.3 mph N/A   Clear
11:35 AM 66.2 °F - 39.2 °F 37% 29.92 in 8.0 mi NW 19.6 mph 26.5 mph N/A   Clear
11:55 AM 66.2 °F - 35.6 °F 32% 29.92 in 10.0 mi NW 23.0 mph 29.9 mph N/A   Clear
12:15 PM 66.2 °F - 35.6 °F 32% 29.91 in 10.0 mi NW 21.9 mph 27.6 mph N/A   Clear
12:35 PM - - - N/A% - - North - - N/A   Unknown
12:55 PM 68.0 °F - 32.0 °F 26% 29.90 in 10.0 mi NW 18.4 mph 26.5 mph N/A   Unknown
1:15 PM 68.0 °F - 32.0 °F 26% 29.89 in 10.0 mi NW 24.2 mph 31.1 mph N/A   Clear
1:35 PM 68.0 °F - 33.8 °F 28% 29.89 in 10.0 mi NW 23.0 mph 32.2 mph N/A   Clear
1:55 PM 68.0 °F - 35.6 °F 30% 29.88 in 10.0 mi NW 24.2 mph 32.2 mph N/A   Clear
2:15 PM 68.0 °F - 33.8 °F 28% 29.88 in 10.0 mi WNW 27.6 mph 32.2 mph N/A   Clear
2:35 PM 68.0 °F - 33.8 °F 28% 29.87 in 10.0 mi WNW 27.6 mph 33.4 mph N/A   Clear
2:55 PM 68.0 °F - 33.8 °F 28% 29.87 in 10.0 mi NW 24.2 mph 36.8 mph N/A   Clear
3:15 PM 68.0 °F - 35.6 °F 30% - 10.0 mi North - - N/A   Unknown
3:35 PM 68.0 °F - 32.0 °F 26% 29.85 in 10.0 mi WNW 24.2 mph 33.4 mph N/A   Clear
3:55 PM 68.0 °F - 32.0 °F 26% 29.85 in 10.0 mi NW 24.2 mph 32.2 mph N/A   Clear
4:15 PM 68.0 °F - 32.0 °F 26% 29.85 in 10.0 mi WNW 25.3 mph 34.5 mph N/A   Clear
4:35 PM 68.0 °F - 30.2 °F 24% - 10.0 mi North - - N/A   Unknown
4:55 PM 68.0 °F - 30.2 °F 24% 29.84 in 10.0 mi WNW 21.9 mph 31.1 mph N/A   Unknown
5:15 PM 68.0 °F - 28.4 °F 23% 29.85 in 10.0 mi WNW 21.9 mph 32.2 mph N/A   Clear
5:35 PM 66.2 °F - 32.0 °F 28% 29.85 in 10.0 mi WNW 19.6 mph 31.1 mph N/A   Clear
5:55 PM 64.4 °F - 28.4 °F 26% 29.85 in 10.0 mi WNW 19.6 mph - N/A   Clear
6:15 PM 64.4 °F - 26.6 °F 24% 29.85 in 10.0 mi WNW 16.1 mph - N/A   Clear
6:35 PM 64.4 °F - 28.4 °F 26% 29.84 in 10.0 mi WNW 15.0 mph - N/A   Clear
6:55 PM 64.4 °F - 28.4 °F 26% 29.84 in 10.0 mi WNW 17.3 mph 21.9 mph N/A   Clear
7:15 PM 62.6 °F - 28.4 °F 27% 29.84 in 10.0 mi WNW 18.4 mph - N/A   Clear
7:35 PM 60.8 °F - 32.0 °F 34% 29.84 in 10.0 mi WNW 24.2 mph 29.9 mph N/A   Clear
7:55 PM 60.8 °F - 32.0 °F 34% 29.84 in 10.0 mi WNW 26.5 mph 32.2 mph N/A   Clear
8:15 PM 60.8 °F - 32.0 °F 34% 29.84 in 10.0 mi WNW 23.0 mph 31.1 mph N/A   Clear
8:35 PM 60.8 °F - 32.0 °F 34% 29.85 in 10.0 mi WNW 21.9 mph 29.9 mph N/A   Clear
8:55 PM 60.8 °F - 32.0 °F 34% 29.85 in 10.0 mi WNW 26.5 mph 32.2 mph N/A   Clear
9:15 PM 59.0 °F - 32.0 °F 36% 29.86 in 10.0 mi WNW 21.9 mph 32.2 mph N/A   Clear
9:35 PM 59.0 °F - 32.0 °F 36% 29.86 in 10.0 mi WNW 23.0 mph 29.9 mph N/A   Clear
9:55 PM 59.0 °F - 32.0 °F 36% 29.87 in 10.0 mi WNW 23.0 mph 32.2 mph N/A   Clear
10:15 PM 59.0 °F - 30.2 °F 34% 29.88 in 10.0 mi WNW 21.9 mph 28.8 mph N/A   Clear
10:35 PM - - - N/A% 29.87 in - WNW 20.7 mph 27.6 mph N/A   Unknown
10:55 PM 59.0 °F - 32.0 °F 36% 29.88 in 10.0 mi WNW 24.2 mph 29.9 mph N/A   Clear
11:15 PM 57.2 °F - 32.0 °F 38% 29.87 in 10.0 mi WNW 23.0 mph 31.1 mph N/A   Clear
11:35 PM 57.2 °F - 35.6 °F 44% 29.87 in 10.0 mi NW 21.9 mph 31.1 mph N/A   Clear
11:55 PM 55.4 °F - 35.6 °F 47% 29.87 in 10.0 mi WNW 20.7 mph 26.5 mph N/A   Clear